Location: Montreal
(45.5087°N, 73.5540°W)
Time: 10:39:09
(UTC-04:00)

UKube-1 - Visible Passes

Search period start: 18 April 2019 00:00
Search period end: 28 April 2019 00:00
Orbit: 612 x 621 km, 98.4° (Epoch: 17 April)

Date Brightness Start Highest point End Pass type
(mag) Time Alt. Az. Time Alt. Az. Time Alt. Az.
18 Apr ? 02:47:02 10° ENE 02:48:21 11° ENE 02:49:40 10° NE visible
18 Apr ? 04:19:22 10° SSE 04:23:40 88° W 04:27:59 10° NNW visible
19 Apr ? 03:01:48 10° E 03:04:21 16° ENE 03:06:56 10° NNE visible
19 Apr ? 04:35:39 10° S 04:39:53 59° WSW 04:44:08 10° NNW visible
20 Apr ? 03:17:07 10° ESE 03:20:24 22° ENE 03:23:40 10° NNE visible
20 Apr ? 04:52:06 10° S 04:56:09 40° W 05:00:12 10° NNW visible
21 Apr ? 03:32:44 10° SE 03:36:28 30° ENE 03:40:14 10° N visible
21 Apr ? 05:08:45 10° SSW 05:12:26 28° W 05:16:08 10° NW visible
22 Apr ? 03:48:32 10° SE 03:52:35 43° ENE 03:56:39 10° N visible
22 Apr ? 05:25:40 10° SW 05:28:45 19° W 05:31:52 10° NW visible
23 Apr ? 04:04:30 10° SSE 04:08:44 63° ENE 04:12:59 10° N visible
24 Apr ? 02:48:20 10° ENE 02:49:37 11° ENE 02:50:53 10° NE visible
24 Apr ? 04:20:37 10° SSE 04:24:54 88° WSW 04:29:14 10° NNW visible
25 Apr ? 03:03:04 10° E 03:05:36 16° ENE 03:08:10 10° NNE visible
25 Apr ? 04:36:54 10° S 04:41:07 60° WSW 04:45:23 10° NNW visible
26 Apr ? 03:18:23 10° ESE 03:21:38 21° ENE 03:24:54 10° NNE visible
26 Apr ? 04:53:20 10° S 04:57:22 40° W 05:01:27 10° NNW visible
27 Apr ? 03:33:59 10° SE 03:37:42 30° ENE 03:41:27 10° N visible
27 Apr ? 05:09:58 10° SSW 05:13:40 28° W 05:17:23 10° NW visible
